Location: Firdgum
(53.2488°N, 5.5615°E)
Time: 14:46:36
(UTC+00:00)

CZ-4C R/B - Pass Details

Date: 08 December 2019
Orbit: 647 x 1355 km, 63.4° (Epoch: 19 January)

Event Time Altitude Azimuth Distance (km) Brightness Sun altitude
Exits shadow 04:27:02 56° 247° (WSW) 1,399 2.9 -27.2°
Maximum altitude 04:27:29 57° 233° (SW) 1,397 2.9 -27.1°
Drops below altitude 10° 04:35:21 10° 158° (SSE) 3,323 5.5 -26.0°
Sets 04:38:23 0° 155° (SSE) 4,336 6.3 -25.5°
